Location: Bosdarros
(43.2167°N, 0.3667°W)
Time: 07:50:02
(UTC+00:00)

Cosmos 1634 Rocket - Pass Details

Date: 22 April 2021
Orbit: 958 x 993 km, 82.9° (Epoch: 07 May)

Event Time Altitude Azimuth Distance (km) Brightness Sun altitude
Rises 19:53:06 0° 190° (S) 3,679 6.8 -10.9°
Reaches altitude 10° 19:55:37 10° 191° (SSW) 2,730 6.2 -11.3°
Maximum altitude 20:01:53 78° 278° (W) 1,003 4.2 -12.3°
Drops below altitude 10° 20:08:09 10° 5° (N) 2,724 6.7 -13.3°
Sets 20:10:39 0° 7° (N) 3,670 7.4 -13.7°
